GW3084 Weather Reports


Display with metric or nautical units.
time (UTC)temp
F
wind
direction
speed
MPH
gust
MPH
rain 1hr
in
rain 24hr
in
rain mn
in
humidity
%
barometer
mb
20260504050020 56 268 2.0 3.0 0.00 0.00 0.00 63 1003.1
20260504045017 56 271 2.0 4.0 0.00 0.00 0.00 63 1003.1
20260504044033 56 268 2.0 4.0 0.00 0.00 0.00 63 1003.1
20260504043030 56 270 2.0 6.0 0.00 0.00 0.00 63 1003.3
20260504042026 56 266 2.0 4.0 0.00 0.00 0.00 63 1003.2
20260504041043 56 269 2.0 8.0 0.00 0.00 0.00 64 1003.4
20260504040020 56 265 2.0 4.0 0.00 0.00 0.00 65 1003.4
20260504035017 56 267 2.0 4.0 0.00 0.00 0.00 65 1003.4
20260504034031 56 267 1.0 4.0 0.00 0.00 0.00 66 1003.5
20260504033028 55 260 1.0 3.0 0.00 0.00 0.00 66 1003.6
20260504032025 55 264 1.0 2.0 0.00 0.00 0.00 67 1003.6
20260504031021 54 255 1.0 2.0 0.00 0.00 0.00 67 1003.7
20260504030058 54 270 0.0 1.0 0.00 0.00 0.00 67 1003.7
20260504025035 54 267 0.0 1.0 0.00 0.00 0.00 67 1003.7
20260504024051 55 234 0.0 1.0 0.00 0.00 0.00 66 1003.5
20260504023048 55 208 0.0 3.0 0.00 0.00 0.00 67 1003.3
20260504022025 55 212 1.0 2.0 0.00 0.00 0.00 67 1003.4
20260504021021 54 206 1.0 4.0 0.00 0.00 0.00 69 1003.2
20260504020038 52 208 1.0 6.0 0.00 0.00 0.00 73 1003.1
20260504015055 50 214 0.0 3.0 0.00 0.00 0.00 79 1003.0
20260504014031 49 132 0.0 1.0 0.00 0.00 0.00 82 1002.9
20260504013028 49 134 1.0 2.0 0.00 0.00 0.00 82 1003.0
20260504012025 49 131 0.0 2.0 0.00 0.00 0.00 81 1003.0
20260504011043 49 126 1.0 2.0 0.00 0.00 0.00 81 1002.9
20260504010019 49 132 0.0 2.0 0.00 0.00 0.00 80 1002.9
20260504005115 50 135 1.0 3.0 0.00 0.00 0.00 78 1002.8
20260504004033 50 140 1.0 3.0 0.00 0.00 0.00 77 1003.0
20260504003028 50 136 2.0 6.0 0.00 0.00 0.00 76 1003.0
20260504002025 51 127 3.0 7.0 0.00 0.00 0.00 75 1003.1
20260504001042 51 133 2.0 7.0 0.00 0.00 0.00 74 1003.1
20260504000019 51 130 3.0 8.0 0.00 0.00 0.00 74 1003.1
20260503235035 51 150 3.0 9.0 0.00 0.00 0.00 74 1003.2
20260503234032 51 142 3.0 8.0 0.00 0.00 0.00 71 1003.1
20260503233028 53 140 4.0 9.0 0.00 0.00 0.00 69 1003.0
20260503232026 53 146 5.0 14.0 0.00 0.00 0.00 69 1003.1
20260503231042 52 148 6.0 13.0 0.00 0.00 0.00 71 1003.2
20260503230019 53 140 6.0 15.0 0.00 0.00 0.00 68 1003.4
20260503225036 55 133 6.0 16.0 0.00 0.00 0.00 62 1003.5
20260503224032 67 144 5.0 15.0 0.00 0.00 0.00 42 1003.5
20260503223028 70 250 6.0 14.0 0.00 0.00 0.00 36 1003.4
20260503222045 70 258 8.0 17.0 0.00 0.00 0.00 36 1003.3
20260503221022 70 260 7.0 19.0 0.00 0.00 0.00 38 1003.4
20260503220018 70 252 6.0 15.0 0.00 0.00 0.00 39 1003.3
20260503215035 68 258 7.0 16.0 0.00 0.00 0.00 41 1003.5
20260503214032 66 217 4.0 9.0 0.00 0.00 0.00 46 1003.5
20260503213029 57 159 4.0 15.0 0.00 0.00 0.00 62 1003.7
20260503212025 53 136 5.0 11.0 0.00 0.00 0.00 68 1004.0
20260503211043 52 137 5.0 16.0 0.00 0.00 0.00 70 1004.0
20260503210019 52 127 6.0 17.0 0.00 0.00 0.00 69 1004.2
20260503205035 53 153 5.0 11.0 0.00 0.00 0.00 68 1004.5
20260503204034 53 150 6.0 13.0 0.00 0.00 0.00 68 1004.6
20260503203029 53 156 6.0 11.0 0.00 0.00 0.00 68 1004.7
20260503202025 53 146 6.0 14.0 0.00 0.00 0.00 66 1004.8
20260503201022 56 172 6.0 13.0 0.00 0.00 0.00 60 1005.0
20260503200019 63 158 5.0 11.0 0.00 0.00 0.00 47 1005.3
20260503195035 68 231 6.0 14.0 0.00 0.00 0.00 36 1005.4
20260503194024 69 255 8.0 27.0 0.00 0.00 0.00 37 1005.4
20260503193017 68 238 7.0 22.0 0.00 0.00 0.00 38 1005.5
20260503192029 68 220 7.0 22.0 0.00 0.00 0.00 39 1005.6
20260503191025 67 222 8.0 17.0 0.00 0.00 0.00 39 1005.9
20260503190021 68 225 7.0 18.0 0.00 0.00 0.00 39 1005.9
20260503185017 67 240 8.0 17.0 0.00 0.00 0.00 39 1006.0
20260503184034 67 247 6.0 19.0 0.00 0.00 0.00 40 1006.3
20260503183031 66 250 7.0 22.0 0.00 0.00 0.00 41 1006.4
20260503182028 66 228 8.0 18.0 0.00 0.00 0.00 42 1006.5
20260503181044 65 240 8.0 16.0 0.00 0.00 0.00 44 1006.6
20260503180021 64 253 10.0 23.0 0.00 0.00 0.00 46 1006.9
20260503175018 64 248 8.0 21.0 0.00 0.00 0.00 46 1006.9
20260503174034 65 232 7.0 16.0 0.00 0.00 0.00 46 1007.0
20260503173031 64 254 7.0 19.0 0.00 0.00 0.00 47 1007.1
20260503172027 64 242 8.0 17.0 0.00 0.00 0.00 49 1007.2
20260503171045 63 245 8.0 25.0 0.00 0.00 0.00 50 1007.3
20260503131024 51 264 5.0 13.0 0.00 0.00 0.00 52 1009.0
20260503081042 47 256 3.0 8.0 0.00 0.00 0.00 58 1010.8
20260503072043 44 266 3.0 6.0 0.00 0.00 0.00 67 1011.0
20260503071020 43 264 3.0 6.0 0.00 0.00 0.00 69 1011.1
20260503055032 40 214 2.0 6.0 0.00 0.00 0.00 82 1012.0
20260503054029 40 229 2.0 4.0 0.00 0.00 0.00 82 1012.1